When you browse on this site, cookies collect data to enhance your experience and personalize the content and advertising you see.
Visit our Privacy Policy to learn more. By continuing to use the site, you agree to this use of cookies and data.
  • In Hungary
  • List of Countries
  • For 7 days
  • Water Temperature
  • Satellite Maps
  • Weather Map
  • News
  • Weather Widgets
  • user-avatar
    Login

    Hourly Weather Agdara

    Today, 19 March, Tuesday

    Time Temperature Precipitation Wind Pressure Humidity
    00:00 +6°C° 0.5 mm 2 mps 721 mmHg 74%
    01:00 +6°C° 0.7 mm 2 mps 721 mmHg 76%
    02:00 +6°C° 0.7 mm 2 mps 721 mmHg 78%
    03:00 +5°C° 0.7 mm 2 mps 721 mmHg 80%
    04:00 +5°C° 0.8 mm 2 mps 721 mmHg 80%
    05:00 +5°C° 0.8 mm 2 mps 721 mmHg 81%
    06:00 +5°C° 0.8 mm 2 mps 722 mmHg 81%
    07:00 +5°C° 0.6 mm 2 mps 722 mmHg 79%
    08:00 +7°C° 0.6 mm 1 mps 722 mmHg 78%
    09:00 +7°C° 0.6 mm 1 mps 722 mmHg 76%
    10:00 +7°C° 0.2 mm 2 mps 722 mmHg 73%
    11:00 +8°C° 0.2 mm 2 mps 722 mmHg 70%
    12:00 +8°C° 0.2 mm 2 mps 722 mmHg 67%
    13:00 +9°C° 0.1 mm 2 mps 722 mmHg 64%
    14:00 +9°C° 0.1 mm 2 mps 722 mmHg 62%
    15:00 +10°C° 0.1 mm 2 mps 721 mmHg 60%
    16:00 +9°C° 0 mm 2 mps 721 mmHg 63%
    17:00 +10°C° 0 mm 1 mps 721 mmHg 65%
    18:00 +9°C° 0 mm 1 mps 722 mmHg 68%
    19:00 +9°C° 0 mm 1 mps 722 mmHg 70%
    20:00 +8°C° 0 mm 1 mps 722 mmHg 73%
    21:00 +8°C° 0 mm 1 mps 722 mmHg 76%
    22:00 +7°C° 0 mm 1 mps 722 mmHg 76%
    23:00 +7°C° 0 mm 1 mps 722 mmHg 77%

    Tomorrow, 20 March, Wednesday

    Time Temperature Precipitation Wind Pressure Humidity
    00:00 +7°C° 0 mm 1 mps 722 mmHg 77%
    01:00 +7°C° 0.1 mm 1 mps 721 mmHg 78%
    02:00 +7°C° 0.1 mm 1 mps 721 mmHg 80%
    03:00 +6°C° 0.1 mm 1 mps 721 mmHg 82%
    04:00 +6°C° 0.2 mm 1 mps 721 mmHg 83%
    05:00 +6°C° 0.2 mm 1 mps 721 mmHg 84%
    06:00 +6°C° 0.2 mm 1 mps 721 mmHg 85%
    07:00 +7°C° 0.3 mm 1 mps 721 mmHg 83%
    08:00 +7°C° 0.3 mm 1 mps 721 mmHg 81%
    09:00 +8°C° 0.3 mm 1 mps 721 mmHg 79%
    10:00 +7°C° 0.2 mm 2 mps 721 mmHg 78%
    11:00 +8°C° 0.2 mm 2 mps 720 mmHg 77%
    12:00 +9°C° 0.2 mm 3 mps 720 mmHg 76%
    13:00 +9°C° 0.3 mm 3 mps 720 mmHg 77%
    14:00 +9°C° 0.3 mm 3 mps 719 mmHg 78%
    15:00 +9°C° 0.3 mm 3 mps 719 mmHg 79%
    16:00 +8°C° 0.2 mm 3 mps 719 mmHg 82%
    17:00 +8°C° 0.2 mm 3 mps 719 mmHg 85%
    18:00 +7°C° 0.2 mm 3 mps 719 mmHg 87%
    19:00 +7°C° 0.2 mm 3 mps 720 mmHg 89%
    20:00 +7°C° 0.2 mm 2 mps 720 mmHg 90%
    21:00 +7°C° 0.2 mm 2 mps 720 mmHg 92%
    22:00 +6°C° 0.1 mm 2 mps 720 mmHg 92%
    23:00 +6°C° 0.1 mm 2 mps 720 mmHg 92%

    Day after tomorrow, 21 March, Thursday

    Time Temperature Precipitation Wind Pressure Humidity
    00:00 +7°C° 0.1 mm 1 mps 720 mmHg 93%
    01:00 +7°C° 0 mm 1 mps 720 mmHg 93%
    02:00 +6°C° 0 mm 1 mps 720 mmHg 93%
    03:00 +6°C° 0 mm 1 mps 720 mmHg 94%
    04:00 +6°C° 0 mm 1 mps 720 mmHg 93%
    05:00 +6°C° 0 mm 1 mps 720 mmHg 92%
    06:00 +4°C° 0 mm 0 mps 720 mmHg 92%
    07:00 +7°C° 0 mm 1 mps 721 mmHg 86%
    08:00 +8°C° 0 mm 1 mps 721 mmHg 81%
    09:00 +8°C° 0 mm 2 mps 721 mmHg 76%
    10:00 +9°C° 0 mm 2 mps 721 mmHg 72%
    11:00 +10°C° 0 mm 2 mps 720 mmHg 69%
    12:00 +12°C° 0 mm 2 mps 720 mmHg 66%
    13:00 +12°C° 0.1 mm 2 mps 720 mmHg 65%
    14:00 +13°C° 0.1 mm 2 mps 719 mmHg 63%
    15:00 +13°C° 0.1 mm 2 mps 719 mmHg 62%
    16:00 +13°C° 0.1 mm 2 mps 719 mmHg 65%
    17:00 +12°C° 0.1 mm 2 mps 719 mmHg 67%
    18:00 +12°C° 0.1 mm 2 mps 719 mmHg 70%
    19:00 +10°C° 0 mm 2 mps 719 mmHg 72%
    20:00 +10°C° 0 mm 1 mps 720 mmHg 75%
    21:00 +10°C° 0 mm 1 mps 720 mmHg 77%
    22:00 +9°C° 0 mm 1 mps 720 mmHg 78%
    23:00 +9°C° 0 mm 1 mps 720 mmHg 79%

    22 March, Friday

    Time Temperature Precipitation Wind Pressure Humidity
    00:00 +8°C° 0 mm 1 mps 720 mmHg 80%
    01:00 +8°C° 0 mm 1 mps 720 mmHg 82%
    02:00 +8°C° 0 mm 1 mps 719 mmHg 84%
    03:00 +7°C° 0 mm 1 mps 719 mmHg 85%
    04:00 +7°C° 0 mm 1 mps 719 mmHg 86%
    05:00 +7°C° 0 mm 1 mps 719 mmHg 87%
    06:00 +7°C° 0 mm 1 mps 719 mmHg 88%
    07:00 +8°C° 0 mm 1 mps 719 mmHg 83%
    08:00 +8°C° 0 mm 2 mps 720 mmHg 79%
    09:00 +9°C° 0 mm 2 mps 720 mmHg 74%
    10:00 +10°C° 0.1 mm 3 mps 719 mmHg 70%
    11:00 +11°C° 0.1 mm 3 mps 719 mmHg 66%
    12:00 +11°C° 0.1 mm 3 mps 718 mmHg 61%
    13:00 +11°C° 0.2 mm 3 mps 718 mmHg 59%
    14:00 +12°C° 0.2 mm 3 mps 717 mmHg 56%
    15:00 +13°C° 0.2 mm 2 mps 716 mmHg 54%
    16:00 +12°C° 0.3 mm 2 mps 716 mmHg 56%
    17:00 +12°C° 0.3 mm 2 mps 717 mmHg 58%
    18:00 +10°C° 0.3 mm 2 mps 717 mmHg 60%
    19:00 +9°C° 0.5 mm 3 mps 717 mmHg 63%
    20:00 +8°C° 0.5 mm 4 mps 718 mmHg 65%
    21:00 +7°C° 0.5 mm 4 mps 718 mmHg 68%
    22:00 +7°C° 0.4 mm 4 mps 719 mmHg 68%
    23:00 +6°C° 0.4 mm 5 mps 719 mmHg 68%

    23 March, Saturday

    Time Temperature Precipitation Wind Pressure Humidity
    00:00 +6°C° 0.4 mm 5 mps 719 mmHg 68%
    01:00 +5°C° 0.3 mm 5 mps 719 mmHg 67%
    02:00 +5°C° 0.3 mm 5 mps 719 mmHg 66%
    03:00 +5°C° 0.3 mm 5 mps 719 mmHg 65%
    04:00 +4°C° 0.5 mm 4 mps 719 mmHg 64%
    05:00 +4°C° 0.5 mm 4 mps 719 mmHg 63%
    06:00 +4°C° 0.5 mm 4 mps 720 mmHg 63%
    07:00 +4°C° 0.2 mm 4 mps 720 mmHg 59%
    08:00 +5°C° 0.2 mm 5 mps 720 mmHg 55%
    09:00 +5°C° 0.2 mm 5 mps 721 mmHg 51%
    10:00 +5°C° 0.1 mm 5 mps 720 mmHg 49%
    11:00 +6°C° 0.1 mm 5 mps 720 mmHg 47%
    12:00 +6°C° 0.1 mm 5 mps 720 mmHg 45%
    13:00 +7°C° 0.1 mm 4 mps 720 mmHg 45%
    14:00 +7°C° 0.1 mm 4 mps 720 mmHg 45%
    15:00 +8°C° 0.1 mm 3 mps 720 mmHg 45%
    16:00 +7°C° 0.1 mm 2 mps 720 mmHg 48%
    17:00 +7°C° 0.1 mm 2 mps 720 mmHg 51%
    18:00 +7°C° 0.1 mm 1 mps 720 mmHg 54%
    19:00 +7°C° 0 mm 1 mps 720 mmHg 56%
    20:00 +6°C° 0 mm 1 mps 721 mmHg 58%
    21:00 +4°C° 0 mm 2 mps 721 mmHg 60%
    22:00 +4°C° 0 mm 2 mps 721 mmHg 60%
    23:00 +3°C° 0 mm 2 mps 721 mmHg 60%

    24 March, Sunday

    Time Temperature Precipitation Wind Pressure Humidity
    00:00 +3°C° 0 mm 2 mps 721 mmHg 60%
    01:00 +2°C° 0 mm 2 mps 721 mmHg 59%
    02:00 +1°C° 0 mm 3 mps 721 mmHg 57%
    03:00 +1°C° 0 mm 3 mps 720 mmHg 56%
    04:00 0°C° 0 mm 3 mps 720 mmHg 54%
    05:00 +1°C° 0 mm 2 mps 720 mmHg 53%
    06:00 +1°C° 0 mm 2 mps 720 mmHg 51%
    07:00 +3°C° 0 mm 2 mps 720 mmHg 48%
    08:00 +5°C° 0 mm 2 mps 720 mmHg 44%
    09:00 +7°C° 0 mm 2 mps 720 mmHg 40%
    10:00 +8°C° 0 mm 2 mps 720 mmHg 40%
    11:00 +9°C° 0 mm 2 mps 719 mmHg 40%
    12:00 +10°C° 0 mm 2 mps 719 mmHg 40%
    13:00 +12°C° 0 mm 2 mps 719 mmHg 40%
    14:00 +12°C° 0 mm 2 mps 718 mmHg 39%
    15:00 +13°C° 0 mm 2 mps 717 mmHg 39%
    16:00 +12°C° 0 mm 2 mps 718 mmHg 43%
    17:00 +10°C° 0 mm 2 mps 718 mmHg 47%
    18:00 +10°C° 0 mm 1 mps 718 mmHg 51%
    19:00 +9°C° 0 mm 2 mps 718 mmHg 52%
    20:00 +8°C° 0 mm 2 mps 719 mmHg 53%
    21:00 +7°C° 0 mm 2 mps 719 mmHg 54%
    22:00 +7°C° 0 mm 2 mps 719 mmHg 54%
    23:00 +7°C° 0 mm 2 mps 719 mmHg 53%
    Show more